Back to catalog

GANGZHONGDA-1

AliveScienceSSO
NORAD 67747·PAYLOAD·🇨🇳 China
This satellite name has not been confirmed by official sources yet.

Launched Feb 12, 2026 from South China Sea Launch Area

Loading…

Next Passes (next 24 hours)

TLE

FreshSource: Space-Track

Epoch: Sep 14, 2026, 03:42 UTC

1 67747U 26027B   26257.15484318  .00005056  00000-0  23666-3 0  9996
2 67747  97.5173  24.8974 0008423 266.5998  93.4273 15.20167987 32471

Track GANGZHONGDA-1 in real time with AllMySat

Download on the App Store